EHI
0 0 0 0 0 0 0 0 0 0 0 0 0 0 0 0 0 0 0 0 0 0 0 0 0 0 0 0 0 0 0 0 0 0 0 0 0 0 0 0 0 0 0 0
0 0 0 0 0 0 0 0 0 0 0 0 0 0 0 0 0 0 0 0 0 0 0 0 0 0 0 0 0 0 0 0 0 0 0 0 0 0 0 0 0 0 0 0
0 0 0 0 0 0 0 0 0 0 0 0 0 0 0 0 0 0 0 0 0 0 0 0 0 0 0 0 0 0 0 0 0 0 0 0 0 0 0 0 0 0 0 0
0 0 0 0 0 0 0 0 0 0 0 0 0 0 0 0 0 0 0 0 0 0 0 0 0 0 0 0 0 0 0 0 0 0 0 0 0 0 0 0 0 0 0 0
0 0 0 0 0 0 0 0 0 0 0 0 0 0 0 0 0 0 0 0 0 0 0 0 0 0 0 0 0 0 0 0 0 0 0 0 0 0 0 0 0 0 0 0
0 0 0 0 0 0 0 0 0 0 0 0 0 0 0 0 0 0 0 0 0 0 0 0 0 0 0 0 0 0 0 0 0 0 0 0 0 0 0 0 0 0 0 0
0 0 0 0 0 0 0 0 0 0 0 0 0 0 0 0 0 0 0 0 0 0 0 0 0 0 0 0 0 0 0 0 0 0 0 0 0 0 0 0 0 0 0 0
0 0 0 0 0 0 0 0 0 0 0 0 0 0 0 0 0 0 0 0 0 0 0 0 0 0 0 0 0 0 0 0 0 0 0 0 0 0 0 0 0 0 0 0
0 0 0 0 0 0 0 0 0 0 0 0 0 0 0 0 0 0 0 0 0 0 0 0 0 0 0 0 0 0 0 0 0 0 0 0 0 0 0 0 0 0 0 0
0 0 0 0 0 0 0 0 0 0 0 0 0 0 0 0 0 0 0 0 0 0 0 0 0 0 0 0 0 0 0 0 0 0 0 0 0 0 0 0 0 0 0 0
0 0 0 0 0 0 0 0 0 0 0 0 0 0 0 0 0 0 0 0 0 0 0 0 0 0 0 0 0 0 0 0 0 0 0 0 0 0 0 0 0 0 0 0
0 0 0 0 0 0 0 0 0 0 0 0 0 0 0 0 0 0 0 0 0 0 0 0 0 0 0 0 0 0 0 0 0 0 0 0 0 0 0 0 0 0 0 0
0 0 0 0 0 0 0 0 0 0 0 0 0 0 0 0 0 0 0 0 0 0 0 0 0 0 0 0 0 0 0 0 0 0 0 0 0 0 0 0 0 0 0 0
0 0 0 0 0 0 0 0 0 0 0 0 0 0 0 0 0 0 0 0 0 0 0 0 0 0 0 0 0 0 0 0 0 0 0 0 0 0 0 0 0 0 0 0
0 0 0 0 0 0 0 0 0 0 0 0 0 0 0 0 0 0 0 0 0 0 0 0 0 0 0 0 0 0 0 0 0 0 0 0 0 0 0 0 0 0 0 0
0 0 0 0 0 0 0 0 0 0 0 0 0 0 0 0 0 0 0 0 0 0 0 0 0 0 0 0 0 0 0 0 0 0 0 0 0 0 0 0 0 0 0 0
0 0 0 0 0 0 0 0 0 0 0 0 0 0 0 0 0 0 0 0 0 0 0 0 0 0 0 0 0 0 0 0 0 0 0 0 0 0 0 0 0 0 0 0
0 0 0 0 0 0 0 0 0 0 0 0 0 0 0 0 0 0 0 0 0 0 0 0 0 0 0 0 0 0 0 0 0 0 0 0 0 0 0 0 0 0 0 0
0 0 0 0 0 0 0 0 0 0 0 0 0 0 0 0 0 0 0 0 0 0 0 0 0 0 0 0 0 0 0 0 0 0 0 0 0 0 0 0 0 0 0 0
0 0 0 0 0 0 0 0 0 0 0 0 0 0 0 0 0 0 0 0 0 0 0 0 0 0 0 0 0 0 0 0 0 0 0 0 0 0 0 0 0 0 0 0
0 0 0 0 0 0 0 0 0 0 0 0 0 0 0 0 0 0 0 0 0 0 0 0 0 0 0 0 0 0 0 0 0 0 0 0 0 0 0 0 0 0 0 0
0 0 0 0 0 0 0 0 0 0 0 0 0 0 0 0 0 0 0 0 0 0 0 0 0 0 0 0 0 0 0 0 0 0 0 0 0 0 0 0 0 0 0 0
0 0 0 0 0 0 0 0 0 0 0 0 0 0 0 0 0 0 0 0 0 0 0 0 0 0 0 0 0 0 0 0 0 0 0 0 0 0 0 0 0 0 0 0
0 0 0 0 0 0 0 0 0 0 0 0 0 0 0 0 0 0 0 0 0 0 0 0 0 0 0 0 0 0 0 0 0 0 0 0 0 0 0 0 0 0 0 0
0 0 0 0 0 0 0 0 0 0 0 0 0 0 0 0 0 0 0 0 0 0 0 0 0 0 0 0 0 0 0 0 0 0 0 0 0 0 0 0 0 0 0 0
0 0 0 0 0 0 0 0 0 0 0 0 0 0 0 0 0 0 0 0 0 0 0 0 0 0 0 0 0 0 0 0 0 0 0 0 0 0 0 0 0 0 0 0
0 0 0 0 0 0 0 0 0 0 0 0 0 0 0 0 0 0 0 0 0 0 0 0 0 0 0 0 0 0 0 0 0 0 0 0 0 0 0 0 0 0 0 0
Wind_Speed
4 2 4 5 7 8 9 10 11 10 10 9 7 6 3 3 2 2 0 1 2 3 4 5 5 6 6 6 6 5 6 7 8 8 8 8 9 9 10 9 10 10 11 11
2 0 2 5 9 10 11 8 9 7 9 5 2 2 3 3 3 1 1 2 4 5 6 6 6 6 6 6 6 5 6 8 8 8 9 9 10 10 10 11 10 10 11 12
3 1 3 9 11 11 7 7 8 8 6 2 2 2 3 3 2 1 2 4 5 6 6 6 6 5 6 6 6 7 7 9 9 9 9 10 11 11 11 11 10 11 11 11
2 2 8 8 1 5 5 4 6 4 3 3 3 1 1 2 2 1 3 4 5 5 6 5 5 5 6 6 7 7 8 9 9 9 10 11 11 12 12 11 11 11 12 12
4 4 9 9 4 6 6 4 3 5 4 3 2 2 3 1 1 2 3 4 4 5 5 5 6 6 6 7 7 8 9 10 10 10 11 12 13 13 12 12 12 11 12 12
5 5 8 7 2 3 5 3 3 5 5 4 3 1 3 2 2 3 4 3 4 5 4 5 6 6 6 8 8 10 10 11 10 10 11 13 14 14 12 11 13 13 13 12
6 6 10 7 3 5 4 6 5 5 5 5 5 5 4 3 3 3 4 4 4 5 5 6 7 6 8 9 10 11 11 11 11 10 11 13 13 12 12 13 13 13 14 13
6 6 11 3 6 7 5 4 5 5 4 4 4 3 3 3 3 4 5 5 5 5 7 7 7 7 9 11 11 10 10 11 11 11 10 11 12 13 12 12 14 13 13 13
9 8 2 1 4 3 5 5 4 4 3 2 2 2 3 3 4 4 5 5 5 6 8 8 8 7 10 12 11 11 11 12 12 12 10 10 11 13 12 10 10 11 11 12
3 4 2 1 3 3 3 3 3 2 1 1 1 2 3 4 4 5 5 6 5 7 8 10 9 9 10 12 11 11 12 12 11 11 12 10 8 9 10 11 11 11 12 12
3 2 1 1 2 3 2 2 1 1 0 1 2 3 3 4 5 5 6 6 6 7 9 11 11 11 10 10 10 11 12 12 11 10 11 11 9 9 12 10 13 16 13 12
6 5 6 5 4 3 3 2 2 1 1 1 2 4 4 5 5 6 7 7 8 9 10 11 11 12 11 9 9 10 11 11 9 9 10 10 11 12 16 18 24 26 25 22
2 2 3 2 3 3 3 2 2 2 2 2 2 3 4 5 5 6 7 9 10 10 11 11 11 12 11 9 8 9 11 12 10 9 10 10 11 12 14 15 19 22 24 24
1 3 2 2 2 2 2 1 1 1 1 2 3 4 5 6 7 8 10 10 10 10 11 12 12 13 11 9 9 10 10 13 13 9 10 10 11 11 12 14 14 11 14 21
2 2 2 2 2 2 1 1 1 1 3 4 4 5 6 8 9 10 10 10 10 10 11 11 12 13 10 9 9 10 10 9 9 9 10 10 11 11 11 13 12 12 11 13
2 3 3 3 2 1 1 0 1 4 4 5 6 8 8 9 10 11 11 10 10 12 12 12 13 13 10 9 10 9 8 16 17 11 10 10 10 11 11 11 11 11 11 11
3 2 2 1 0 1 2 3 4 6 6 7 9 9 9 9 10 11 11 10 9 11 11 12 13 12 10 10 9 8 8 11 18 13 10 10 11 11 11 11 11 11 11 13
3 2 2 2 2 2 4 5 5 7 7 8 9 9 9 10 12 13 13 11 10 11 11 12 11 11 10 9 8 8 8 9 9 10 10 10 11 10 10 11 11 12 11 11
3 2 1 1 2 3 4 6 7 7 8 9 9 10 11 11 11 12 12 11 11 14 11 8 15 12 9 11 14 7 8 10 10 9 10 15 13 10 10 10 11 11 10 10
2 2 2 3 4 4 6 7 8 8 9 9 10 11 12 12 11 11 11 11 10 10 10 11 11 9 9 10 15 8 8 9 10 10 10 10 10 10 10 10 11 10 10 9
3 3 4 5 6 7 7 8 8 10 10 9 10 12 13 13 11 10 10 12 10 9 10 15 10 7 7 10 15 7 7 8 9 9 10 10 10 11 10 10 10 10 10 9
4 4 6 6 7 8 8 8 8 10 11 11 11 11 12 13 11 10 10 10 10 14 10 7 6 11 15 17 7 6 7 8 9 9 9 10 10 10 11 11 10 10 9 8
5 6 7 8 8 9 10 9 9 9 10 11 12 12 12 11 9 10 11 7 7 13 11 7 12 20 22 11 5 6 7 9 9 9 9 10 10 10 10 11 10 9 9 8
7 7 8 8 7 8 11 11 10 9 10 11 11 11 11 10 9 8 8 14 17 18 9 12 20 21 20 6 5 6 7 8 9 9 9 9 9 9 9 10 10 9 8 9
7 8 8 8 8 8 10 10 10 10 10 9 10 10 9 8 9 9 8 9 15 17 9 12 19 20 11 6 7 7 7 8 10 10 8 9 9 9 9 9 9 9 8 8
7 7 7 8 8 8 8 7 8 8 9 10 9 8 7 7 8 8 8 9 11 15 11 7 8 11 7 7 7 8 8 9 10 9 9 9 10 10 9 9 11 9 8 7
7 7 6 7 7 6 6 7 9 9 9 10 11 9 8 8 8 8 9 9 8 8 7 7 7 7 7 7 7 8 8 8 8 8 8 9 9 9 9 10 9 8 8 7
Wind_Direction
234 205 178 209 208 194 199 203 215 233 231 245 247 243 222 179 152 127 76 349 323 308 302 305 310 311 311 308 309 310 311 307 298 294 293 292 291 290 288 285 283 281 282 281
263 137 212 252 242 226 227 225 233 256 268 255 245 143 144 160 154 149 302 313 312 309 308 309 310 309 311 308 306 308 303 297 294 295 295 293 291 291 290 288 285 283 281 282
244 304 355 268 236 216 214 208 196 222 236 174 120 138 166 178 174 209 290 300 304 306 303 303 303 303 302 298 302 303 297 294 295 294 293 292 293 294 292 291 287 286 283 281
168 141 237 243 193 175 186 224 204 199 179 152 157 178 214 178 171 267 295 301 305 304 303 303 301 300 295 297 300 299 295 293 293 293 293 294 294 293 292 290 289 287 287 285
155 219 271 287 233 176 178 242 208 173 158 135 99 40 336 238 178 264 288 291 289 290 290 296 299 299 303 303 301 298 295 293 293 294 296 297 296 294 294 294 293 289 287 286
154 195 242 249 194 157 114 245 212 153 150 145 114 76 268 275 316 311 313 309 305 306 304 302 300 304 303 299 300 297 295 294 294 292 293 295 295 296 295 293 293 293 290 287
183 219 257 249 193 126 172 234 168 153 158 161 178 202 235 312 320 315 314 312 312 310 301 294 297 303 297 297 293 291 292 294 293 291 291 292 293 294 295 295 295 293 292 290
170 203 248 202 142 178 194 138 141 154 169 185 215 256 298 315 313 320 319 313 312 305 299 297 297 297 294 293 291 293 294 295 295 293 292 297 296 297 295 295 296 296 296 295
193 211 259 175 170 156 136 139 159 169 185 193 236 276 298 301 305 304 300 296 293 291 294 296 293 288 289 292 296 298 298 297 297 297 293 290 292 296 299 296 295 297 297 296
226 256 234 142 121 115 123 138 151 152 157 172 238 272 285 287 289 294 291 290 289 294 295 296 295 288 282 290 295 297 298 300 300 301 301 296 288 289 294 297 296 296 296 296
229 239 131 215 193 158 127 106 96 68 128 210 232 262 266 274 280 280 283 284 284 285 287 289 292 291 288 289 295 297 298 298 300 297 298 301 296 290 294 287 289 296 296 296
214 204 181 209 203 170 158 182 211 217 237 235 221 247 266 269 271 275 281 284 287 286 285 288 291 292 292 289 289 293 300 301 300 300 299 299 301 301 296 296 300 300 300 300
203 157 160 162 144 151 168 196 208 206 218 243 260 252 260 269 273 276 281 284 283 284 285 288 291 292 292 290 288 286 290 296 298 297 298 300 302 304 306 305 302 302 302 304
167 117 119 134 149 156 159 165 162 183 242 250 258 268 270 272 275 279 280 279 279 283 286 287 288 289 291 290 288 286 286 293 297 295 295 296 298 300 302 304 307 305 304 306
94 113 144 134 115 113 126 131 113 303 293 287 273 274 276 276 278 278 280 282 284 283 284 286 288 290 292 290 288 289 291 291 292 291 293 295 297 298 297 297 298 301 303 306
97 87 98 107 111 111 116 139 281 282 282 281 282 279 275 272 274 278 281 281 281 285 287 288 288 289 292 291 290 291 288 298 305 302 298 299 298 298 298 298 299 300 302 304
131 120 110 105 115 264 260 257 257 266 274 277 276 280 284 286 286 285 283 278 272 275 280 282 284 287 288 286 286 289 291 296 302 303 296 296 297 298 298 299 300 300 299 300
144 145 158 181 211 262 282 281 274 274 272 272 280 284 285 285 286 287 288 289 288 284 278 275 278 285 282 283 285 285 288 291 293 295 297 299 300 299 300 299 299 299 299 302
96 94 69 291 266 260 267 276 278 277 278 281 283 283 281 280 280 283 287 289 290 292 288 275 292 297 287 288 297 286 287 292 295 297 298 301 304 300 299 298 299 299 301 304
39 10 333 309 297 277 276 278 281 282 281 282 284 286 287 285 283 284 286 283 275 272 279 288 290 281 280 284 296 287 288 294 299 300 301 299 300 300 299 299 300 301 302 302
335 322 314 303 295 287 279 279 282 284 286 284 281 282 285 287 286 283 285 288 283 275 280 292 294 287 289 293 299 292 293 297 300 299 300 300 300 300 301 301 301 302 303 304
300 296 294 292 290 290 286 282 281 283 287 286 283 281 285 288 289 285 271 271 282 291 295 282 281 292 301 306 298 294 296 298 298 298 298 299 300 301 301 302 302 303 303 301
284 283 284 284 284 286 289 286 281 281 281 283 285 286 285 285 287 289 291 284 281 293 297 282 293 303 309 311 295 294 295 297 297 297 297 297 298 300 301 303 301 301 301 300
279 280 279 281 285 288 288 286 283 279 277 279 278 277 279 286 285 272 271 289 297 299 295 293 303 307 312 306 292 291 292 294 293 293 294 297 299 300 301 300 299 299 300 300
273 275 277 281 282 278 278 284 288 286 283 281 279 276 272 269 276 286 284 284 291 299 294 296 303 308 307 289 288 288 289 290 294 299 299 301 301 301 299 298 299 302 301 299
269 270 270 266 265 272 277 281 285 287 288 290 290 286 282 279 277 281 284 284 282 292 294 289 290 295 289 285 286 287 289 295 299 299 295 296 298 299 297 298 299 299 298 298
272 270 273 276 270 262 265 273 281 286 287 289 293 294 291 289 288 288 287 288 287 287 286 286 285 283 284 285 286 287 289 290 291 292 294 296 296 296 296 297 297 297 297 296